Location: Muck Cross
(36.7179°N, 78.3678°W)
Time: 20:03:35
(UTC+00:00)

Transit 4A - Visible Passes

Search period start: 21 March 2023 00:00
Search period end: 31 March 2023 00:00
Orbit: 868 x 976 km, 66.8° (Epoch: 21 March)

Date Brightness Start Highest point End Pass type
(mag) Time Alt. Az. Time Alt. Az. Time Alt. Az.
21 Mar 11.2 10:30:47 10° ESE 10:31:02 10° E 10:31:16 10° E visible
22 Mar 10.6 10:36:16 10° SE 10:39:55 17° ESE 10:43:34 10° ENE visible
23 Mar 10.1 10:44:03 10° SSE 10:48:50 27° ESE 10:53:40 10° NE visible
26 Mar 10.6 09:28:21 10° SE 09:30:34 12° ESE 09:32:48 10° E visible
27 Mar 10.2 09:35:21 10° SSE 09:39:27 20° ESE 09:43:37 10° ENE visible
28 Mar 9.5 09:43:22 10° S 09:48:25 32° ESE 09:53:31 10° NE visible
29 Mar 8.7 09:51:53 10° S 09:57:26 50° ESE 10:03:05 10° NE visible
30 Mar 7.9 10:00:45 10° SSW 10:06:32 78° ESE 10:12:25 10° NNE visible
